Location: Forst
(46.9333°N, 15.4333°E)
Time: 14:41:42
(UTC+00:00)

ARGOS - Pass Details

Date: 01 December 2020
Orbit: 820 x 834 km, 98.4° (Epoch: 27 January)

Event Time Altitude Azimuth Distance (km) Brightness Sun altitude
Exits shadow 18:08:27 35° 349° (NNW) 1,308 4.2 -29.5°
Drops below altitude 10° 18:11:31 10° 347° (NNW) 2,443 5.7 -30.0°
Sets 18:13:53 0° 347° (NNW) 3,378 6.5 -30.4°
